This is the latest recevied weather packets stored in our database for station/object KD4EG. If no packets are shown the sender has not sent any weather packets the latest 10 day(s).
| Time | Temp. | Humidity | Pressure | Rain* | Wind** | Luminosity | Snow |
|---|---|---|---|---|---|---|---|
| 1778068295 | 16.67° C | 87% | 1013.2 hPa | 0 mm | - | 50 W/m² | - |
| 1778067992 | 16.11° C | 87% | 1012.9 hPa | 0 mm | - | 31 W/m² | - |
| 1778067690 | 16.67° C | 87% | 1012.7 hPa | 0 mm | - | 24 W/m² | - |
| 1778067388 | 16.67° C | 86% | 1012.8 hPa | 0 mm | - | 20 W/m² | - |
| 1778067085 | 16.67° C | 86% | 1012.6 hPa | 0 mm | - | 11 W/m² | - |
| 1778066781 | 16.67° C | 84% | 1013 hPa | 0 mm | - | 9 W/m² | - |
| 1778066479 | 17.22° C | 80% | 1013 hPa | 0 mm | - | 7 W/m² | - |
| 1778066176 | 17.22° C | 79% | 1013.3 hPa | 0 mm | - | 9 W/m² | - |
| 1778065874 | 17.78° C | 76% | 1013 hPa | 0 mm | - | 9 W/m² | - |
| 1778065571 | 17.78° C | 75% | 1013 hPa | 0 mm | - | 2 W/m² | - |
| 1778065268 | 17.78° C | 74% | 1012.7 hPa | 0 mm | - | 3 W/m² | - |
| 1778064964 | 17.78° C | 73% | 1012.6 hPa | 0 mm | - | 1 W/m² | - |
| 1778064662 | 17.78° C | 72% | 1012.6 hPa | 0 mm | - | 0 W/m² | - |
| 1778064360 | 17.78° C | 72% | 1012.6 hPa | 0 mm | - | 0 W/m² | - |
| 1778064057 | 17.78° C | 73% | 1012.7 hPa | 0 mm | - | 0 W/m² | - |
| 1778063754 | 17.78° C | 71% | 1012.3 hPa | 0 mm | - | 0 W/m² | - |
| 1778063451 | 17.78° C | 71% | 1012.4 hPa | 0 mm | - | 0 W/m² | - |
| 1778063149 | 18.33° C | 71% | 1012.3 hPa | 0 mm | - | 0 W/m² | - |
| 1778062846 | 17.78° C | 71% | 1012.3 hPa | 0 mm | - | 0 W/m² | - |
| 1778062543 | 18.33° C | 71% | 1012.2 hPa | 0 mm | - | 0 W/m² | - |
| 1778062240 | 18.33° C | 70% | 1012.1 hPa | 0 mm | - | 0 W/m² | - |
| 1778061938 | 17.78° C | 71% | 1012.3 hPa | 0 mm | - | 0 W/m² | - |
| 1778061636 | 17.78° C | 71% | 1012.2 hPa | 0 mm | - | 0 W/m² | - |
| 1778061335 | 17.78° C | 71% | 1012.4 hPa | 0 mm | - | 0 W/m² | - |
| 1778061030 | 18.33° C | 70% | 1012.7 hPa | 0 mm | - | 0 W/m² | - |
* Rain latest hour (hover to see other rain measurements)
** Current wind speed in m/s (hover to see current wind gust speed)